Regional Weather Roundup
Issued by NWS

Home | Current Version | Previous Version | Text Only | Print | Product List | Glossary Off
Versions: 1 2 3 4 5 6 7 8 9 10 11 12 13 14 15 16 17 18 19 20 21 22 23 24 25 26 27 28 29 30 31 32 33 34 35 36 37 38 39 40 41 42 43 44 45 46 47 48 49 50

000
ASUS43 KLSX 221059
RWRMO

WEATHER SUMMARY FOR MISSOURI
NATIONAL WEATHER SERVICE SPRINGFIELD MO
600 AM CDT WED OCT 22 2014

NOTE: "FAIR" INDICATES FEW OR NO CLOUDS BELOW 12,000 FEET WITH NO
       SIGNIFICANT WEATHER AND/OR OBSTRUCTIONS TO VISIBILITY.
       CURRENT SKY AND/OR WEATHER CONDITIONS ARE NOT AVAILABLE FOR
       CHILLICOTHE AND FARMINGTON.

MOZ001>031-035>038-043-044-053-054-221200-
...NORTHERN AND WESTERN MISSOURI...

CITY           SKY/WX    TMP DP  RH WIND       PRES   REMARKS
KANSAS CTY INT CLOUDY    55  46  71 SE12      30.16R
KANSAS C DTWN  CLOUDY    57  46  66 E7        30.17R
LEE`S SUMMIT   CLOUDY    53  45  74 SE8       30.17R
ST JOSEPH      CLOUDY    56  46  69 SE9       30.16R
KIRKSVILLE     CLEAR     41  39  93 E7        30.26R

$$
MOZ066>068-077>081-088>096-101>105-221200-
...SOUTHWEST MISSOURI...

CITY           SKY/WX    TMP DP  RH WIND       PRES   REMARKS
SPRINGFIELD    CLEAR     51  44  77 SE14      30.17S
JOPLIN         CLEAR     53  48  83 SE8       30.15R

$$
MOZ032>034-039>042-045>050-055>058-069>072-221200-
...CENTRAL MISSOURI...

CITY           SKY/WX    TMP DP  RH WIND       PRES   REMARKS
COLUMBIA       CLEAR     45  40  82 E9        30.23R
JEFFERSON CITY CLEAR     44  40  85 SE5       30.24R
ROLLA          CLEAR     44  40  85 E8        30.22R
SEDALIA        CLEAR     47  42  83 SE7       30.21R
OSAGE BEACH    CLEAR     45  39  81 E6        30.22R

$$
MOZ051-052-059>065-221200-
...EAST CENTRAL MISSOURI...

CITY           SKY/WX    TMP DP  RH WIND       PRES   REMARKS
ST LOUIS INTL  CLEAR     43  38  82 E5        30.27S
SPIRIT OF STL  CLEAR     38  37  97 CALM      30.27R
ST CHARLES     CLEAR     39  38  96 NE3       30.28R

$$
MOZ072>076-082>087-097>100-106>115-221200-
...SOUTH CENTRAL AND SOUTHEAST MISSOURI...

CITY           SKY/WX    TMP DP  RH WIND       PRES   REMARKS
CAPE GIRARDEAU CLEAR     40  38  93 CALM      30.25R FOG
FARMINGTON     CLEAR     39  37  93 CALM      30.26S
POPLAR BLUFF   CLEAR     46  40  79 NE6       30.23R
WEST PLAINS    CLEAR     45  41  86 E5        30.24R

$$



USA.gov is the U.S. government's official web portal to all federal, state and local government web resources and services.